Temp
14 14 13 13 13 13 13 12 12 12 12 13 12 13 13 12 12 12 12 13 14 14 13 13 12 12 13 12 13 12 12 12 12 12 12 12 12 11 11 11 11 12 12
14 13 13 13 13 13 13 12 12 12 13 12 12 12 12 12 12 11 12 12 12 13 13 12 12 12 12 12 12 12 12 12 12 12 11 11 11 12 11 11 11 11 11
14 13 13 13 13 12 12 12 12 12 12 12 12 11 11 11 11 12 11 12 12 13 13 12 12 12 11 11 11 11 11 11 11 11 11 11 11 11 11 11 11 11 11
13 13 13 13 13 12 12 12 12 12 12 11 11 11 10 10 10 11 10 10 11 12 12 12 12 12 11 11 11 11 11 11 11 11 11 11 11 11 11 11 11 11 11
13 13 13 13 13 12 12 12 12 12 11 11 11 11 10 10 10 10 10 11 11 11 11 12 11 12 11 11 11 11 10 10 10 10 10 10 10 10 10 10 10 9 10
13 13 13 13 13 12 12 12 12 11 11 11 11 10 9 9 9 10 11 11 10 10 11 11 11 12 12 10 10 10 10 10 10 10 10 10 10 9 9 9 10 9 9
12 12 12 13 13 12 12 12 11 11 11 11 11 10 9 9 9 10 10 10 10 10 9 9 10 10 10 10 9 9 10 10 10 9 9 9 9 9 9 9 9 9 8
12 12 12 12 12 12 12 11 11 11 11 12 12 11 9 9 9 9 9 9 9 9 9 9 8 8 8 9 9 10 10 10 9 9 9 8 8 8 8 9 9 8 9
11 12 12 12 12 12 12 12 11 11 11 11 11 11 10 9 9 8 9 9 8 8 8 8 7 7 7 7 8 8 8 7 7 6 7 6 7 7 8 8 8 9 9
11 12 11 12 12 12 12 11 10 10 10 11 10 11 11 11 9 8 8 8 8 8 8 7 7 6 6 6 6 6 6 6 5 5 5 5 6 5 4 4 5 6 7
11 11 11 11 12 12 11 11 10 9 9 9 9 10 9 9 10 10 9 8 7 7 7 7 7 6 6 5 5 5 5 5 5 5 5 5 5 5 3 2 2 2 3
10 11 11 11 11 11 10 10 9 9 8 8 8 8 8 8 9 9 9 8 7 6 6 6 6 6 6 6 5 5 4 4 5 5 5 5 4 4 4 3 1 1 -0
10 11 10 10 9 10 9 9 9 8 8 8 7 7 8 8 8 8 8 8 8 6 5 5 5 5 5 5 5 5 5 3 4 4 4 4 3 3 3 3 2 1 -0
11 9 10 9 9 8 8 9 8 8 7 7 7 7 7 7 7 7 7 7 6 6 5 5 4 4 4 4 4 4 4 3 3 3 3 3 2 2 2 1 1 1 1
10 10 7 9 7 7 7 8 8 8 7 7 7 7 7 7 7 7 6 6 6 6 5 4 4 3 3 3 3 3 2 2 2 2 2 2 1 1 1 1 1 0 1
8 8 8 7 6 5 5 6 6 7 8 7 7 7 7 7 6 6 6 6 5 5 5 4 3 3 2 2 2 1 1 1 0 0 1 1 1 0 0 0 0 -0 -0
7 7 7 7 6 5 5 4 4 6 7 7 7 7 7 6 6 6 5 5 5 4 4 3 3 2 2 1 1 0 -0 -0 -1 -0 -0 -1 -1 -1 -1 -1 -1 -1 -1
7 7 6 5 3 4 4 3 3 4 5 5 6 6 6 6 5 5 4 4 4 3 3 3 2 1 1 -0 -0 -1 -1 -1 -1 -1 -1 -2 -2 -2 -2 -2 -2 -2 -2
5 5 4 3 3 3 2 1 1 3 3 3 4 4 4 4 4 3 3 3 2 2 2 2 2 1 -0 -1 -1 -2 -2 -2 -2 -2 -2 -3 -3 -3 -3 -3 -3 -3 -3
4 3 2 2 2 2 -1 -1 0 2 2 2 2 2 2 2 2 2 2 2 1 1 1 1 0 -0 -1 -2 -2 -2 -3 -3 -3 -3 -3 -3 -3 -4 -4 -4 -4 -4 -4
2 2 1 1 -0 1 -3 -1 -1 -0 -0 0 1 1 1 1 1 1 0 0 0 -0 -0 -1 -1 -1 -2 -2 -3 -3 -3 -4 -4 -4 -4 -4 -4 -4 -4 -4 -4 -4 -5
0 -1 -0 -1 -1 -2 -3 -3 -4 -3 -2 -3 -3 -3 -1 -0 -0 -0 -1 -1 -1 -2 -2 -2 -2 -2 -3 -3 -4 -4 -4 -4 -4 -4 -4 -5 -5 -5 -4 -5 -5 -5 -5
-1 -2 -2 -2 -2 -3 -3 -4 -4 -3 -3 -5 -3 -2 -1 -1 -1 -1 -2 -2 -2 -2 -3 -3 -3 -3 -4 -4 -4 -4 -5 -5 -5 -5 -5 -4 -5 -5 -5 -6 -6 -6 -7
-2 -2 -3 -3 -3 -4 -4 -3 -3 -6 -6 -5 -4 -3 -2 -2 -3 -3 -3 -3 -3 -3 -4 -4 -4 -4 -4 -5 -5 -5 -5 -5 -6 -6 -7 -6 -6 -6 -6 -7 -7 -7 -7
-4 -4 -4 -4 -4 -5 -4 -7 -7 -6 -5 -5 -4 -3 -3 -3 -3 -4 -4 -4 -4 -4 -4 -5 -5 -5 -5 -5 -6 -6 -6 -6 -6 -6 -7 -8 -8 -7 -7 -7 -7 -8 -8
-5 -5 -5 -5 -6 -6 -6 -6 -6 -5 -6 -4 -4 -4 -5 -5 -4 -5 -5 -5 -5 -5 -5 -5 -6 -6 -6 -6 -6 -7 -7 -7 -8 -8 -8 -9 -8 -9 -9 -8 -8 -9 -9
Height
1567 1571 1575 1579 1582 1585 1588 1592 1594 1596 1598 1600 1603 1605 1606 1608 1609 1610 1612 1613 1612 1613 1613 1614 1614 1615 1616 1618 1619 1620 1621 1622 1623 1623 1624 1625 1626 1626 1627 1627 1627 1625 1625
1569 1572 1576 1580 1583 1587 1590 1594 1596 1599 1600 1602 1604 1607 1608 1609 1611 1612 1614 1614 1615 1615 1615 1615 1616 1617 1618 1619 1620 1621 1623 1624 1625 1626 1626 1627 1628 1628 1629 1628 1629 1628 1627
1570 1574 1577 1581 1585 1589 1592 1595 1598 1600 1602 1604 1607 1609 1610 1612 1612 1613 1616 1617 1617 1617 1616 1616 1617 1617 1617 1618 1619 1623 1625 1625 1627 1627 1627 1628 1630 1630 1630 1630 1630 1630 1629
1571 1575 1578 1582 1585 1589 1592 1595 1598 1600 1603 1606 1608 1610 1612 1614 1615 1617 1619 1620 1620 1621 1622 1621 1620 1619 1620 1621 1622 1624 1626 1627 1628 1630 1630 1631 1631 1632 1632 1632 1631 1631 1631
1571 1575 1578 1582 1585 1589 1592 1595 1598 1602 1603 1607 1610 1612 1614 1615 1618 1619 1620 1622 1623 1624 1624 1626 1626 1626 1626 1625 1625 1628 1630 1630 1630 1632 1633 1633 1633 1633 1633 1633 1633 1632 1632
1570 1574 1578 1581 1585 1589 1592 1595 1598 1601 1604 1607 1609 1612 1615 1617 1619 1620 1622 1623 1623 1625 1626 1628 1628 1630 1630 1630 1631 1631 1633 1633 1632 1633 1633 1634 1634 1634 1634 1633 1633 1632 1631
1569 1573 1577 1581 1584 1588 1591 1594 1597 1600 1602 1607 1609 1612 1615 1618 1620 1621 1622 1623 1624 1625 1627 1628 1629 1630 1632 1633 1633 1633 1634 1634 1634 1633 1633 1633 1633 1634 1633 1632 1632 1631 1630
1567 1572 1576 1580 1583 1586 1590 1593 1596 1597 1601 1603 1607 1611 1615 1619 1620 1621 1623 1624 1625 1626 1627 1628 1629 1630 1631 1633 1634 1635 1635 1635 1635 1635 1634 1633 1633 1632 1630 1629 1629 1628 1628
1565 1569 1574 1578 1582 1586 1589 1592 1595 1598 1599 1602 1605 1609 1611 1614 1617 1620 1621 1623 1625 1626 1627 1628 1629 1630 1631 1632 1633 1634 1634 1634 1634 1633 1632 1632 1632 1630 1629 1628 1627 1626 1626
1563 1568 1572 1576 1581 1584 1588 1591 1594 1597 1600 1602 1604 1606 1609 1611 1614 1617 1620 1621 1623 1625 1626 1627 1628 1629 1630 1630 1631 1632 1632 1633 1632 1632 1631 1631 1631 1629 1628 1626 1625 1624 1623
1559 1565 1569 1574 1578 1582 1586 1589 1592 1595 1599 1602 1604 1605 1608 1610 1612 1614 1615 1619 1621 1622 1624 1626 1627 1628 1629 1630 1630 1629 1631 1631 1631 1630 1630 1629 1629 1628 1627 1625 1624 1622 1621
1553 1560 1565 1570 1576 1580 1584 1586 1590 1593 1596 1600 1602 1604 1606 1608 1610 1612 1614 1616 1619 1621 1622 1623 1624 1626 1627 1627 1628 1629 1629 1629 1629 1628 1627 1627 1627 1626 1625 1624 1623 1621 1621
1547 1554 1560 1566 1572 1576 1581 1584 1587 1590 1593 1596 1599 1601 1603 1606 1608 1610 1612 1614 1616 1618 1620 1622 1623 1624 1625 1626 1626 1627 1628 1628 1627 1628 1627 1626 1625 1625 1624 1623 1622 1621 1619
1543 1549 1555 1562 1567 1573 1577 1580 1585 1587 1590 1593 1596 1599 1601 1603 1605 1607 1609 1611 1613 1615 1617 1618 1620 1622 1623 1624 1625 1625 1626 1626 1625 1625 1625 1624 1623 1623 1622 1621 1621 1619 1618
1537 1544 1551 1557 1563 1568 1574 1577 1581 1584 1586 1590 1594 1595 1598 1600 1602 1604 1606 1608 1610 1612 1614 1615 1618 1619 1621 1622 1623 1623 1624 1624 1624 1624 1624 1623 1622 1621 1621 1620 1620 1618 1617
1535 1541 1547 1552 1561 1563 1569 1574 1578 1580 1583 1587 1590 1593 1595 1597 1599 1602 1604 1605 1607 1609 1611 1613 1614 1616 1618 1619 1620 1621 1622 1622 1622 1622 1622 1621 1621 1620 1619 1618 1617 1616 1615
1529 1535 1542 1546 1553 1559 1564 1571 1576 1577 1579 1583 1586 1589 1592 1595 1597 1599 1601 1603 1604 1606 1608 1609 1612 1613 1615 1617 1618 1619 1619 1620 1620 1621 1621 1620 1619 1618 1617 1617 1616 1615 1614
1528 1533 1538 1542 1547 1552 1558 1567 1574 1574 1577 1579 1582 1584 1587 1591 1594 1596 1598 1600 1601 1603 1605 1606 1608 1610 1613 1614 1616 1617 1618 1619 1619 1619 1618 1618 1617 1616 1616 1615 1615 1614 1612
1523 1527 1533 1538 1543 1546 1555 1562 1571 1573 1576 1578 1581 1581 1585 1587 1590 1592 1595 1596 1598 1600 1602 1603 1605 1607 1610 1612 1613 1615 1616 1617 1617 1617 1616 1616 1615 1615 1614 1613 1613 1612 1610
1518 1523 1528 1533 1539 1542 1552 1559 1566 1570 1572 1577 1578 1579 1582 1585 1586 1589 1592 1593 1596 1598 1600 1601 1603 1605 1608 1610 1612 1613 1614 1614 1615 1615 1615 1614 1613 1612 1612 1611 1610 1608 1608
1514 1519 1524 1529 1535 1539 1549 1558 1562 1566 1571 1575 1577 1579 1581 1583 1585 1587 1590 1592 1593 1597 1598 1599 1601 1603 1606 1608 1610 1611 1611 1612 1613 1613 1613 1612 1611 1610 1610 1608 1606 1605 1605
1512 1518 1521 1528 1531 1537 1543 1549 1556 1564 1568 1571 1574 1577 1580 1583 1583 1584 1587 1590 1592 1594 1596 1597 1599 1601 1603 1605 1607 1609 1609 1609 1610 1611 1610 1611 1609 1607 1606 1604 1603 1600 1600
1510 1515 1520 1526 1531 1536 1542 1546 1554 1560 1565 1568 1574 1577 1579 1581 1582 1583 1585 1588 1591 1592 1594 1596 1597 1600 1601 1603 1604 1605 1607 1607 1607 1607 1607 1607 1605 1603 1602 1600 1599 1597 1595
1510 1515 1520 1525 1530 1535 1541 1546 1551 1558 1564 1567 1572 1577 1577 1579 1581 1583 1583 1586 1588 1591 1593 1595 1595 1597 1599 1600 1602 1603 1603 1604 1604 1603 1601 1601 1600 1598 1597 1596 1595 1593 1591
1510 1515 1521 1524 1531 1534 1536 1546 1551 1557 1561 1565 1570 1573 1576 1579 1579 1581 1583 1584 1586 1589 1590 1593 1593 1595 1597 1598 1599 1599 1600 1600 1599 1599 1597 1596 1596 1592 1592 1592 1590 1588 1588
1511 1516 1520 1527 1533 1535 1535 1547 1552 1556 1560 1564 1566 1569 1574 1578 1579 1579 1581 1583 1584 1586 1588 1590 1591 1592 1594 1594 1595 1596 1596 1595 1595 1594 1594 1593 1591 1590 1587 1586 1586 1587 1586
Wind_Speed
26 24 23 21 20 19 19 20 21 23 24 23 22 21 20 17 15 15 13 10 7 5 6 6 6 7 8 10 12 12 11 12 12 14 15 16 15 14 13 14 14 15 15
26 25 24 22 21 22 22 22 22 22 21 18 16 13 12 10 10 12 10 9 9 6 5 7 5 7 7 9 13 14 13 12 12 12 11 11 11 10 9 10 10 10 11
25 25 23 23 22 22 21 20 19 17 15 13 12 13 13 13 11 9 13 20 21 21 20 12 6 8 12 11 11 14 10 10 9 7 8 8 8 8 8 9 11 11 9
25 24 23 23 22 22 20 19 17 17 16 13 12 10 8 9 11 13 16 19 17 21 22 19 21 17 11 11 14 19 18 15 14 17 16 13 13 11 10 7 7 7 8
27 24 23 23 22 22 22 20 20 15 15 15 11 9 8 10 16 20 19 16 15 15 19 16 16 21 28 28 26 18 12 8 9 8 9 6 4 4 4 4 5 5 5
27 24 23 22 22 22 22 20 17 18 15 15 15 11 12 14 17 16 14 10 8 8 9 8 7 6 6 11 11 9 10 8 5 4 4 3 2 3 3 5 6 5 7
28 26 25 23 22 22 22 21 21 20 19 15 12 10 14 13 12 12 11 9 6 4 5 5 4 6 7 5 7 6 1 0 3 5 8 11 13 13 11 8 9 9 5
30 27 25 23 22 23 22 22 22 23 21 19 13 12 12 11 12 11 9 8 7 5 3 3 4 9 8 4 3 3 8 12 13 14 13 14 15 12 13 13 10 11 12
31 28 26 24 24 23 21 21 22 21 21 19 17 11 9 8 15 11 11 9 7 7 6 6 6 8 7 5 5 6 10 10 13 17 18 14 17 12 13 13 14 14 14
33 31 29 26 25 24 22 21 22 22 19 16 17 15 10 7 10 9 11 10 9 7 8 9 10 10 10 10 8 7 8 11 14 13 17 16 14 11 11 10 11 11 10
36 33 30 29 27 25 23 21 22 23 21 18 15 15 13 10 9 6 9 12 11 10 9 9 9 9 10 10 10 8 8 10 13 16 18 19 12 11 8 9 9 9 8
39 36 34 33 30 27 26 24 23 24 23 20 17 16 13 12 10 9 7 10 11 10 11 10 10 10 11 12 11 11 11 12 13 16 18 17 13 9 10 9 8 9 7
43 39 39 35 32 30 28 26 25 25 23 21 19 17 16 14 11 10 9 8 10 12 11 11 11 10 10 10 11 12 12 11 12 13 16 17 13 9 9 9 10 7 7
42 40 39 36 34 32 31 28 27 25 23 21 20 17 15 14 12 11 10 10 10 11 13 12 12 10 9 9 10 10 10 9 10 11 12 12 12 9 8 8 8 10 11
39 42 41 38 34 31 30 29 29 27 24 21 19 17 14 13 12 11 11 11 12 11 13 13 10 10 9 9 9 10 10 10 9 10 10 11 10 9 8 8 9 10 11
38 39 41 35 35 33 31 29 30 27 24 23 20 17 14 12 11 11 10 11 11 12 10 11 12 10 10 9 9 9 9 7 8 8 9 9 9 10 11 11 11 12 13
40 38 42 41 40 37 32 30 30 28 27 25 23 19 16 14 13 12 11 11 12 12 12 11 12 11 10 10 9 8 7 7 7 7 8 8 9 10 11 12 13 13 13
40 41 44 39 39 38 34 30 27 27 27 26 24 22 19 16 14 12 12 12 12 12 12 11 12 12 11 9 8 7 6 6 6 7 8 9 10 10 11 12 12 12 13
36 37 38 38 37 35 33 30 26 25 23 22 21 18 15 14 12 11 11 10 10 9 9 9 10 11 9 8 7 6 6 7 7 8 8 9 10 11 11 12 13 13 14
34 35 36 37 38 35 31 28 25 24 22 21 18 15 14 12 11 10 10 9 8 8 8 8 9 10 10 9 8 7 7 6 7 8 9 9 11 11 12 13 14 15 16
30 33 34 35 34 34 29 27 24 21 19 19 17 15 13 12 11 11 9 8 8 8 8 8 9 10 9 8 7 6 6 7 8 9 9 11 12 13 15 16 17 17 16
28 29 29 31 33 33 32 27 23 24 23 21 19 15 14 14 12 10 9 8 8 7 7 7 8 8 8 7 6 6 7 8 8 10 11 11 15 16 17 18 18 18 18
27 27 27 28 28 27 26 26 26 28 22 16 14 15 15 13 11 10 10 9 9 8 7 6 6 6 6 6 7 8 8 9 10 12 15 15 17 17 17 16 16 16 15
25 25 26 25 25 27 29 32 29 21 21 19 16 14 12 12 11 11 10 10 8 7 6 6 6 6 6 7 8 8 9 11 13 15 17 19 19 18 15 15 14 13 15
23 25 26 28 30 31 31 27 26 25 20 18 18 14 12 12 12 11 9 9 8 7 6 6 5 5 6 8 9 11 12 14 16 17 16 16 15 20 20 15 12 13 12
27 28 29 29 28 28 28 24 21 18 18 18 17 15 14 13 11 10 9 8 7 7 7 7 6 7 8 10 12 14 15 16 16 15 13 16 19 20 16 15 2 11 16
Wind_Direction
155 154 151 148 149 150 150 148 143 137 133 127 123 121 113 106 102 99 85 77 89 97 115 120 118 117 128 131 125 124 123 113 107 101 95 91 89 81 73 67 66 66 65
162 158 153 151 149 146 143 143 141 142 138 134 132 127 122 117 111 99 91 75 63 67 83 110 126 142 142 149 139 125 115 113 107 94 93 91 86 81 73 64 64 62 56
167 165 160 158 156 154 152 151 151 152 151 146 143 128 118 117 110 101 91 88 79 75 80 106 113 158 155 160 149 122 112 120 105 97 102 97 88 79 75 71 60 53 57
173 171 169 168 168 169 170 168 163 157 151 139 130 127 125 123 113 101 103 109 95 82 78 79 83 81 117 140 112 110 105 101 94 92 99 100 95 89 87 77 57 41 31
176 177 176 176 177 175 174 172 166 174 165 151 154 149 144 127 117 118 121 113 104 95 92 89 81 89 93 100 112 118 120 121 108 88 102 103 70 70 55 33 23 15 9
181 183 181 180 180 182 181 182 184 168 168 166 160 157 145 135 131 139 141 132 117 109 96 93 80 73 87 90 95 106 122 112 98 69 69 46 39 40 335 328 319 344 335
186 186 186 185 184 186 188 187 181 181 170 175 170 162 153 149 154 158 158 159 152 130 100 89 72 95 104 137 116 114 166 204 334 343 359 342 330 321 307 276 284 304 313
188 189 191 190 190 188 191 191 192 185 183 174 188 173 164 167 177 181 186 184 182 185 184 154 130 133 145 175 157 271 276 287 295 297 302 314 318 317 312 308 296 288 284
193 191 192 197 193 194 198 200 201 204 196 191 194 185 173 184 191 193 191 203 207 196 197 180 171 167 170 201 201 251 272 289 299 306 319 323 329 329 319 311 309 304 298
197 196 195 197 200 200 204 207 207 210 215 216 208 203 206 190 185 192 213 217 215 208 200 200 197 200 190 187 210 242 263 279 288 300 307 314 336 338 336 344 334 330 324
198 200 194 196 201 204 204 209 210 210 214 222 227 230 218 207 199 195 198 207 215 215 214 206 207 209 217 219 219 218 229 265 291 298 301 307 323 317 334 347 355 358 13
199 195 197 198 203 206 206 204 211 214 215 217 224 223 227 228 226 226 214 203 208 210 214 213 211 215 221 226 231 243 243 253 269 278 287 301 314 309 311 322 354 7 38
197 197 198 199 203 203 207 208 211 212 214 217 220 222 226 233 233 227 226 215 214 214 215 220 221 223 224 230 237 245 251 258 271 283 294 303 314 316 310 311 316 346 345
203 203 201 202 205 205 205 209 210 210 213 217 219 221 227 232 235 237 237 232 212 217 219 223 224 222 224 232 244 255 264 269 278 287 294 301 309 310 307 304 308 308 315
208 205 211 207 208 206 210 209 210 210 210 214 217 217 222 229 235 238 237 234 230 221 219 221 218 224 232 245 255 267 274 276 277 285 291 296 303 307 309 311 311 310 308
207 212 217 211 216 208 209 212 213 209 210 210 211 213 216 225 230 232 232 231 231 229 220 219 222 228 235 247 256 262 265 263 270 276 281 290 298 304 309 309 308 310 320
214 222 212 213 211 211 208 211 214 211 208 206 205 208 215 221 224 227 233 235 235 234 232 222 225 226 229 236 242 250 253 259 267 279 293 298 302 304 308 309 313 317 318
225 224 218 217 209 205 208 209 213 208 206 205 203 201 209 219 221 223 230 231 233 235 235 232 219 217 217 222 229 238 248 263 276 286 291 296 296 299 304 310 316 317 316
222 222 222 218 211 206 207 205 209 208 204 205 205 204 206 207 216 223 224 222 222 221 220 221 211 206 208 212 222 236 254 270 280 285 292 298 302 306 310 313 316 316 315
225 225 215 212 212 206 204 200 203 202 199 200 197 192 195 196 205 209 207 200 199 197 193 190 189 194 202 208 225 242 255 270 280 289 293 297 298 303 307 310 311 311 311
219 218 214 212 208 203 192 193 194 199 200 196 186 183 188 187 186 186 189 195 198 206 200 196 198 204 213 219 224 238 254 272 285 291 293 293 295 300 303 304 305 305 305
211 209 208 207 200 197 197 193 187 185 182 188 190 184 189 188 185 191 200 202 200 199 198 193 193 198 205 214 229 248 261 272 287 286 289 293 297 300 301 301 299 298 297
204 203 201 201 198 195 192 185 191 200 190 170 181 187 191 194 195 200 196 191 185 184 184 189 197 207 217 229 245 259 273 283 290 293 297 298 300 300 301 303 304 302 292
195 193 192 192 192 192 194 197 187 164 172 176 185 189 192 196 187 183 177 177 177 182 191 201 208 220 235 249 262 274 284 290 296 301 304 305 305 303 306 310 304 289 286
183 185 186 184 187 180 175 156 162 174 180 179 186 190 193 192 184 182 187 187 186 192 202 217 227 241 256 264 273 283 289 295 299 301 303 303 301 307 314 316 298 275 282
177 176 172 170 165 159 152 166 175 172 181 192 190 187 187 194 193 192 198 203 201 209 221 230 241 253 265 278 287 291 294 295 297 304 301 301 304 316 321 320 304 304 285